Airfield :
LOGIN :

Register | Disclaimer

   EN    FR    IT 

 










Legend :    VFR   Marginal VFR   IFR   Intensive IFR   Very Intensive IFR
Visi :
Ceiling :
>= 8 km
>= 3000ft
5 to 8 km
1000 to 3000 ft
1500m to 5 km
500 to 1000 ft
800 to 1500m
200 to 500 ft
< 800m
< 200 ft
Symbols :   Thunderstorms  Fog  Heavy snow  Heavy precipitations  Wind > 20 kt
SIGMETs :     Misc.  Thunderstorms  Icing  Turbulence  Mountain Waves  Volcanic Ashes







- Airport Elevation : 1 ft
- Download approach charts


EGCK - Caernarfon

CURRENT METAR :
  • 210520Z AUTO 16006KT 110V190 9999 OVC048/// 16/15 Q1019

EXPIRED METARs :
  • 210450Z AUTO 16006KT 110V200 9999 BKN049/// 16/15 Q1018
  • 210420Z AUTO 15005KT 100V190 9999 BKN049/// 16/14 Q1018
  • 210350Z AUTO 17008KT 9999 NCD 15/14 Q1019
  • 210320Z AUTO 17008KT 9999 NCD 15/14 Q1019
  • 210250Z AUTO 17006KT 9999 NCD 15/14 Q1019

TAF TAF EGCK
Valid from the 21 at 03:00 until the 21 at 12:00 UTC


210153Z 2103/2112 19007KT 9999 SCT009
TEMPO 2103/2108 5000 BR BKN007
PROB30
TEMPO 2103/2106 0800 FG BKN001
No reported NOTAMs for that airfield.



MET'MAP, your aeronautical weather chart ! - Copyright ORBIFLY December 2007 - Disclaimer

ORBIFLY MET'MAP TEAM :

Programming & Development : Alexandra Zaïnal
Concept & Development : Baudouin d'Aumeries
Co-Development & Prog : Marc-Olivier Méhu
Technical & hardware support : Manuel Goepfert

Contact : metmap@orbifly.com




SOURCES & CREDITS :

   NOAA